Wind_Speed
47 43 40 36 34 32 32 31 32 34 34 34 33 31 30 30 31 32 34 35 36 38 37 40 43 43 42 47 44 42 41 42 54 45 42 44 40 43 52 51 49 46 40 44 40 52 51 41 44 48 45 37 40 43
35 35 33 31 31 29 29 31 31 28 27 26 25 25 26 26 27 29 32 33 34 35 35 38 39 43 42 46 45 44 42 44 51 41 44 41 44 42 45 45 51 45 46 39 36 50 55 55 40 37 36 37 43 45
34 30 29 28 24 25 24 22 20 19 18 18 21 23 23 23 24 27 30 30 29 30 31 34 35 37 40 42 48 45 46 39 39 47 42 43 43 49 43 44 48 53 48 37 40 39 45 43 45 50 50 49 51 51
28 28 27 23 22 20 18 18 18 15 14 16 18 21 21 20 21 25 28 27 26 27 28 29 29 29 33 37 43 46 44 38 39 41 48 47 40 45 46 46 43 50 51 46 40 47 46 46 44 42 36 41 43 42
27 25 25 21 20 17 15 14 12 10 11 13 15 19 20 20 20 24 25 25 25 26 27 26 24 25 27 32 38 41 41 41 41 36 36 44 20 28 27 35 48 42 41 36 40 51 49 61 50 43 46 44 52 50
25 22 22 17 13 12 10 8 6 7 9 12 14 17 17 17 22 19 24 26 28 28 23 23 24 22 24 27 32 33 33 35 27 37 29 27 30 24 28 29 29 31 36 46 41 46 38 36 28 28 26 30 28 24
25 20 19 11 9 8 5 4 5 7 9 12 12 12 13 17 18 21 26 28 33 31 28 27 26 24 21 21 23 27 31 33 27 35 31 32 32 31 29 25 24 26 28 29 28 26 24 27 25 26 26 23 27 24
24 17 11 6 4 3 1 1 5 7 9 10 11 11 14 14 19 24 25 28 30 28 25 25 29 24 22 24 23 26 28 28 30 38 37 39 36 29 25 29 26 24 19 21 27 26 25 26 26 29 32 35 34 35
15 11 6 3 2 1 1 4 5 8 10 10 11 13 12 15 23 23 26 26 28 27 26 22 28 28 25 23 26 26 26 27 33 34 41 39 40 39 32 28 31 30 29 28 29 31 32 35 32 36 35 33 32 30
7 6 2 2 1 1 3 6 7 11 12 11 12 13 14 20 22 24 24 23 20 24 26 23 21 25 25 21 24 24 27 25 31 35 30 37 40 40 42 39 35 35 34 34 34 34 35 35 35 35 33 33 33 34
4 5 5 6 4 3 6 9 11 13 14 12 17 18 20 20 22 23 24 24 21 22 24 29 24 21 24 18 20 28 26 26 29 30 28 29 36 38 38 37 36 36 35 35 35 37 37 37 37 36 33 31 32 30
8 7 8 8 8 11 13 14 15 14 14 18 21 22 21 21 21 22 23 23 16 28 25 26 25 21 21 19 17 27 30 27 29 32 28 28 30 32 29 27 26 28 32 34 34 32 33 34 32 31 33 39 35 33
12 11 12 10 12 17 18 19 20 20 20 22 25 25 24 24 24 23 21 16 16 29 23 26 28 24 21 20 19 14 25 33 31 31 28 25 25 24 24 25 26 27 29 31 33 32 32 34 31 29 30 32 33 35
18 16 14 12 17 20 24 27 20 17 19 23 26 24 25 22 20 20 17 13 15 26 21 20 29 24 24 24 26 21 15 17 22 28 30 22 22 27 28 27 26 26 27 26 24 24 26 29 30 32 33 35 37 38
18 15 15 17 20 23 29 27 19 18 19 23 24 24 24 23 19 16 11 14 23 21 17 20 29 27 23 23 26 28 23 24 19 14 10 11 10 10 11 13 17 18 19 22 24 26 27 30 32 35 37 38 38 37
22 22 21 21 23 25 28 24 20 17 19 22 22 25 24 19 19 17 12 15 18 17 22 20 24 23 22 22 24 25 24 22 18 16 16 17 18 18 19 19 19 19 21 23 26 28 30 31 31 32 30 26 26 25
24 24 25 26 25 23 23 21 21 20 21 22 19 20 17 17 14 13 17 17 16 18 17 18 18 19 20 22 21 19 17 15 17 17 15 15 15 15 16 17 17 18 21 24 25 25 27 28 28 23 24 23 22 23
28 25 25 26 27 27 26 25 22 25 28 23 18 18 15 17 16 16 16 16 15 16 16 17 18 15 14 13 16 17 17 17 16 15 14 15 15 16 16 17 18 21 20 22 24 25 22 19 17 16 17 17 18 21
27 24 24 25 24 23 20 21 17 21 18 15 17 17 15 15 15 13 13 14 13 13 14 14 14 14 13 13 13 14 14 14 14 13 15 16 16 17 18 18 18 16 17 16 15 12 12 16 21 22 19 20 21 23
26 23 21 22 23 22 18 18 18 17 17 16 15 16 16 14 12 11 11 12 11 11 12 12 12 12 11 10 10 10 11 10 11 13 13 14 16 18 18 18 18 16 15 14 12 11 13 14 16 17 19 20 21 20
22 20 19 18 17 19 20 18 16 15 15 17 17 15 14 13 11 10 8 10 10 11 11 10 7 5 4 4 5 5 7 9 10 12 14 15 13 13 14 15 14 13 12 13 14 15 16 17 19 20 20 20 19 19
27 23 18 18 18 17 16 15 15 16 17 17 17 16 14 13 12 11 10 10 10 9 7 6 6 6 5 5 5 4 6 8 10 12 13 11 10 9 8 6 7 11 13 15 16 17 18 20 21 21 21 22 23 23
41 38 36 36 37 35 31 27 23 19 15 14 14 15 15 13 12 11 12 11 10 8 9 10 8 6 7 7 6 5 4 5 7 10 10 11 10 9 12 12 12 14 17 18 18 21 20 19 20 21 21 22 23 24
35 39 38 36 35 33 32 32 32 32 30 28 26 23 23 23 23 23 20 16 13 11 9 8 8 6 5 3 2 2 5 6 6 8 12 13 15 15 14 15 16 19 20 21 23 22 22 24 25 25 25 25 27 29
26 27 27 27 28 29 26 26 26 26 25 24 24 23 30 26 21 21 16 11 10 8 8 6 6 3 5 4 3 2 2 2 4 6 9 11 11 14 16 19 21 24 26 26 24 26 27 26 27 29 30 32 33 34
18 20 18 20 19 20 23 24 25 26 25 23 22 21 19 17 15 18 18 16 15 12 13 12 10 7 4 3 4 6 8 9 11 12 13 15 17 19 21 24 25 25 26 27 27 27 28 30 31 32 34 37 39 41
15 16 18 18 17 19 18 20 20 21 22 21 22 20 17 16 19 21 20 17 14 14 12 10 10 9 7 5 6 7 9 12 14 16 16 17 18 21 23 24 25 27 28 30 32 33 35 37 37 38 39 41 42 44
19 19 18 19 19 19 20 20 18 19 20 19 20 18 16 15 15 14 14 14 13 11 10 8 7 7 10 13 14 15 16 17 19 20 20 20 21 22 24 26 28 31 33 36 39 42 43 43 43 44 46 47 47 49
21 23 17 15 16 18 19 17 17 17 16 16 18 17 16 14 11 11 11 11 11 12 15 18 21 22 23 24 24 24 24 25 26 27 28 30 31 32 32 35 36 37 38 40 42 45 46 48 50 52 53 54 55 56
18 20 18 15 14 14 15 14 14 14 15 13 12 12 11 9 10 12 12 14 15 16 18 20 22 23 25 25 27 29 30 30 30 30 31 32 33 34 35 37 39 40 42 44 46 48 51 52 54 56 57 58 59 59
14 17 15 12 9 9 10 9 6 9 7 7 7 9 10 14 13 11 12 14 17 19 21 23 25 27 29 31 31 32 32 33 34 34 35 36 37 39 42 44 45 47 48 50 52 54 55 56 58 59 61 62 63 65
9 19 6 9 10 11 11 10 10 8 6 7 7 11 14 24 22 21 12 21 22 20 19 28 34 32 32 34 36 37 38 38 38 40 42 44 46 48 48 48 50 51 53 54 56 57 58 59 61 62 64 66 67 69
12 12 11 12 11 12 11 11 12 10 13 19 14 18 16 17 16 21 21 28 24 27 34 38 40 41 40 40 41 41 43 44 46 47 49 50 51 51 52 53 53 54 55 56 58 60 62 63 65 66 66 67 67 67
Wind_Direction
305 302 303 301 298 294 290 287 282 273 265 258 253 251 246 239 234 229 230 224 219 211 217 214 215 218 214 211 210 213 217 221 221 226 230 228 227 231 233 233 200 203 203 205 208 220 223 228 234 234 237 241 245 248
312 309 304 303 299 295 296 294 285 275 264 254 242 238 234 232 229 225 227 221 217 212 214 214 213 215 213 214 207 213 216 226 216 219 225 227 228 232 240 235 214 201 207 204 210 210 218 215 209 225 230 241 250 256
308 312 310 304 297 297 297 298 288 277 257 241 230 227 227 228 224 219 223 216 215 207 209 212 213 211 213 215 211 214 220 224 229 218 222 226 227 227 228 232 237 238 214 211 204 210 216 220 225 237 237 242 247 252
310 313 315 305 302 298 299 295 285 267 244 230 224 220 219 222 220 212 217 211 208 201 203 208 210 210 211 214 215 217 224 230 220 221 221 222 228 228 227 232 235 246 248 217 224 223 217 218 218 223 227 233 239 244
307 309 313 306 303 294 297 291 273 251 229 216 213 210 214 217 216 208 210 203 195 191 197 201 202 201 206 211 213 215 221 227 231 223 228 229 231 201 211 228 232 225 228 243 240 234 238 221 230 240 236 240 245 248
304 306 311 305 306 299 301 275 246 224 200 200 200 200 209 211 198 200 195 191 180 179 176 180 190 186 195 202 209 212 212 216 219 213 216 229 231 218 226 225 226 224 227 232 238 242 247 243 247 249 251 259 241 241
307 304 308 295 298 314 300 263 208 192 186 189 189 191 196 188 191 193 180 178 180 185 175 175 183 181 178 183 195 201 212 214 217 217 201 216 224 227 231 231 234 236 230 228 235 235 235 227 230 243 244 269 286 284
303 297 302 278 279 317 305 249 196 178 178 182 179 180 175 183 182 168 173 175 180 187 193 204 190 185 190 198 205 213 209 215 217 199 202 207 206 207 227 224 226 222 216 228 238 231 234 240 264 277 279 277 276 278
291 280 285 243 251 241 178 186 180 175 169 174 174 167 171 167 162 165 166 168 176 188 196 193 196 198 199 199 201 204 203 200 197 200 204 205 208 209 212 220 228 229 229 232 238 242 249 258 268 269 269 269 272 276
277 245 226 173 165 154 152 157 159 159 162 162 160 158 155 155 159 162 165 166 168 178 174 163 165 184 193 194 195 190 180 187 197 198 202 207 212 215 217 223 230 232 235 244 249 252 253 254 259 264 274 283 286 286
164 172 136 105 111 103 128 139 139 143 145 137 138 142 142 146 152 159 166 166 176 178 178 172 153 168 180 187 207 177 166 183 192 194 197 202 209 218 223 229 236 244 251 255 257 261 269 274 278 280 285 288 286 282
118 123 131 101 76 109 119 122 124 131 136 128 132 133 134 139 145 154 164 175 179 172 179 177 156 159 166 177 201 164 159 172 181 189 191 197 206 215 222 228 235 242 248 255 262 266 269 275 279 284 287 286 283 282
94 105 118 107 104 112 116 114 110 106 126 132 131 131 136 139 146 153 161 163 166 175 177 168 163 151 155 165 186 181 173 168 182 187 189 189 194 200 207 219 228 234 243 250 257 263 269 273 274 276 278 279 282 283
85 100 109 107 116 117 117 119 113 114 123 134 132 136 134 132 134 141 148 151 152 167 170 166 162 153 159 167 177 174 186 167 187 190 194 195 205 209 215 221 226 236 244 252 253 254 260 269 274 274 275 276 278 282
79 87 94 107 118 122 125 113 124 109 120 133 130 127 127 128 132 133 122 132 146 150 156 166 164 161 167 172 172 177 188 188 193 192 189 193 202 216 219 225 230 242 247 251 258 263 265 269 272 274 277 283 287 288
84 87 92 105 116 125 133 119 121 119 123 135 135 135 133 128 135 126 124 128 124 139 145 155 156 160 168 176 177 184 188 193 191 193 197 203 208 214 221 229 237 245 252 257 262 267 271 275 280 284 288 284 284 288
82 88 97 105 111 113 127 134 120 110 119 132 141 139 127 134 132 114 137 133 129 137 144 153 158 158 167 172 175 179 182 181 181 190 193 196 206 217 226 232 238 245 253 260 267 273 280 281 282 283 286 280 278 282
85 93 98 102 107 106 112 120 119 114 113 115 123 134 133 139 143 142 143 144 146 145 145 145 146 158 167 173 171 175 181 181 186 190 198 207 215 224 233 241 249 256 270 278 279 277 274 273 272 275 268 268 274 282
86 91 93 94 95 95 97 111 117 130 117 107 116 129 137 144 145 148 146 144 143 138 140 135 137 144 152 162 174 184 194 196 199 202 211 218 223 232 238 245 253 267 274 281 277 264 267 263 265 265 273 279 277 276
76 86 93 95 96 95 90 96 110 111 105 96 112 125 135 147 150 154 151 147 142 135 129 129 138 151 163 168 176 187 195 197 200 208 215 225 231 239 248 251 258 265 262 258 256 275 281 281 286 282 276 272 272 274
69 74 81 87 82 81 94 104 109 105 97 101 110 116 120 126 127 131 131 135 138 144 154 151 139 120 123 157 191 200 209 208 207 213 222 230 240 255 255 259 260 247 268 283 282 282 288 290 288 285 277 268 266 269
87 83 73 74 78 83 88 96 103 105 104 109 116 122 122 120 120 122 131 132 133 133 137 141 141 119 129 152 170 185 200 209 215 223 226 242 251 262 273 297 272 260 258 262 267 274 282 283 280 276 272 270 270 272
66 63 63 71 76 76 79 83 86 92 102 111 113 114 115 113 114 120 128 133 137 131 125 126 132 141 149 150 156 174 192 213 232 239 250 255 267 287 272 271 268 260 262 270 277 281 282 285 287 285 281 278 278 278
67 64 64 68 70 73 79 81 81 86 91 96 92 83 94 102 104 100 95 102 109 119 123 131 126 126 143 155 108 350 321 324 309 275 261 260 263 270 269 271 267 269 273 276 280 282 290 294 293 289 285 281 279 279
60 63 56 60 61 66 72 75 77 75 79 88 87 91 107 106 102 89 96 106 109 92 125 141 164 216 170 151 208 279 317 306 282 276 273 273 273 275 278 280 280 279 282 285 285 287 289 286 282 279 279 280 281 281
58 66 55 48 45 49 65 71 72 77 79 80 80 85 90 101 99 82 75 72 84 80 80 76 75 79 69 14 346 332 326 317 308 304 301 297 292 286 282 281 284 288 289 288 287 288 287 286 286 288 287 286 285 285
45 54 50 48 48 57 65 67 70 73 71 71 76 78 74 79 80 79 81 80 74 68 62 53 40 34 21 0 344 331 326 321 319 315 312 306 300 295 291 289 288 288 288 288 289 289 289 290 291 291 290 289 289 288
49 49 55 62 66 70 74 72 69 69 73 74 75 73 70 67 70 72 74 75 72 66 56 44 31 18 9 0 351 343 333 325 320 317 313 307 301 297 293 290 287 286 286 287 288 288 290 292 294 293 292 291 290 290
54 51 46 52 56 59 60 61 68 70 64 57 54 48 44 48 56 57 51 45 36 26 16 9 5 0 354 349 343 338 333 329 330 327 322 317 312 311 307 304 301 300 299 298 297 296 296 295 294 293 293 293 293 292
51 58 58 55 61 61 53 49 49 47 44 42 40 37 35 23 11 10 11 13 9 4 359 356 353 349 343 336 330 325 324 324 322 318 314 311 311 308 305 301 299 298 298 297 296 296 295 295 295 294 294 293 293 292
30 25 24 41 64 71 70 67 51 19 15 7 356 354 356 342 336 336 352 351 341 334 337 341 343 336 329 324 322 318 314 313 311 309 310 310 308 306 307 307 305 303 300 299 298 297 297 296 295 294 294 294 293 292
356 353 8 27 24 17 7 2 8 14 0 4 356 5 3 333 290 292 319 352 342 335 331 330 329 326 322 319 317 315 314 311 309 310 311 309 308 309 308 306 304 303 301 300 299 298 297 297 296 296 295 294 293 292
353 11 5 4 352 353 346 343 347 343 326 315 299 325 325 332 326 296 288 325 317 317 320 322 322 322 320 318 318 317 317 318 318 315 313 312 312 311 308 307 306 305 304 303 302 301 300 299 298 297 296 295 294 293
Height
5549 5543 5537 5534 5531 5528 5526 5524 5523 5522 5524 5526 5531 5535 5539 5543 5548 5553 5558 5565 5572 5583 5589 5595 5602 5609 5619 5628 5638 5646 5654 5662 5670 5677 5685 5692 5698 5701 5706 5710 5720 5730 5736 5742 5750 5757 5761 5767 5771 5778 5782 5783 5789 5795
5538 5535 5530 5525 5522 5519 5516 5514 5511 5511 5513 5517 5521 5526 5531 5535 5540 5545 5550 5557 5565 5575 5582 5587 5595 5602 5612 5620 5630 5638 5646 5652 5659 5667 5676 5683 5689 5691 5695 5704 5712 5723 5729 5735 5740 5746 5750 5759 5763 5769 5775 5781 5785 5786
5532 5526 5521 5517 5514 5511 5509 5506 5504 5504 5506 5510 5514 5519 5524 5529 5534 5540 5545 5553 5560 5569 5575 5582 5589 5598 5605 5613 5623 5630 5638 5646 5651 5659 5667 5674 5682 5690 5697 5705 5708 5714 5723 5727 5736 5739 5747 5752 5757 5762 5766 5769 5772 5776
5524 5519 5515 5511 5508 5505 5503 5501 5500 5500 5502 5505 5509 5514 5520 5524 5530 5535 5540 5549 5556 5564 5571 5579 5585 5593 5600 5607 5616 5625 5632 5638 5645 5652 5659 5668 5676 5683 5690 5695 5701 5707 5708 5715 5725 5729 5738 5742 5746 5751 5755 5757 5761 5764
5517 5513 5509 5506 5503 5501 5499 5497 5496 5497 5499 5502 5506 5511 5516 5521 5526 5532 5538 5546 5553 5563 5569 5576 5582 5589 5596 5603 5610 5619 5626 5634 5640 5648 5653 5660 5668 5673 5680 5687 5693 5702 5709 5713 5716 5723 5729 5731 5736 5741 5742 5746 5749 5753
5511 5507 5504 5502 5500 5498 5496 5495 5495 5496 5498 5501 5504 5509 5513 5518 5523 5529 5537 5544 5552 5559 5567 5573 5580 5587 5593 5599 5606 5614 5622 5629 5635 5642 5651 5655 5663 5669 5674 5680 5685 5693 5699 5706 5711 5717 5721 5724 5728 5729 5730 5733 5733 5737
5505 5502 5499 5498 5497 5496 5494 5494 5495 5496 5498 5501 5504 5508 5512 5517 5522 5528 5536 5543 5550 5558 5564 5571 5578 5585 5591 5596 5603 5610 5618 5624 5630 5637 5646 5652 5661 5666 5670 5676 5682 5688 5693 5700 5706 5711 5713 5717 5718 5718 5722 5724 5728 5733
5500 5498 5496 5495 5495 5494 5494 5494 5495 5497 5499 5501 5505 5509 5513 5517 5522 5528 5535 5542 5550 5557 5564 5570 5576 5584 5588 5595 5601 5608 5614 5619 5624 5631 5640 5647 5656 5664 5667 5672 5679 5684 5688 5692 5697 5701 5704 5708 5710 5715 5718 5720 5722 5725
5493 5494 5493 5494 5494 5493 5494 5494 5496 5498 5500 5503 5506 5510 5514 5519 5524 5531 5537 5544 5551 5559 5565 5568 5575 5582 5587 5593 5599 5604 5609 5614 5619 5625 5634 5643 5649 5658 5663 5665 5671 5677 5682 5686 5691 5695 5698 5703 5706 5711 5713 5715 5716 5718
5488 5491 5492 5492 5493 5493 5494 5495 5497 5499 5502 5505 5509 5513 5517 5521 5527 5533 5541 5546 5552 5558 5563 5569 5574 5581 5588 5592 5596 5603 5605 5610 5616 5624 5634 5639 5645 5651 5657 5662 5666 5671 5676 5681 5684 5688 5692 5695 5697 5699 5702 5703 5705 5706
5488 5491 5492 5493 5494 5495 5496 5498 5500 5503 5506 5509 5512 5516 5521 5525 5531 5537 5543 5549 5554 5559 5563 5569 5575 5581 5587 5593 5595 5601 5604 5609 5615 5623 5631 5637 5641 5646 5651 5656 5661 5665 5669 5672 5675 5679 5681 5684 5686 5688 5690 5691 5693 5693
5491 5493 5495 5496 5497 5498 5500 5502 5505 5507 5510 5514 5517 5521 5526 5531 5536 5541 5546 5551 5554 5560 5564 5570 5577 5582 5587 5593 5595 5601 5606 5611 5616 5620 5626 5633 5639 5643 5648 5653 5658 5661 5663 5665 5668 5671 5673 5675 5676 5677 5677 5678 5678 5679
5497 5498 5499 5501 5502 5504 5506 5508 5510 5513 5516 5519 5523 5527 5531 5536 5540 5545 5549 5554 5557 5560 5566 5571 5577 5583 5588 5594 5598 5600 5606 5612 5616 5621 5625 5632 5637 5641 5646 5649 5652 5655 5658 5660 5662 5664 5665 5667 5669 5670 5671 5670 5670 5670
5504 5505 5506 5507 5509 5511 5514 5517 5518 5520 5523 5527 5530 5534 5538 5542 5547 5551 5553 5556 5560 5565 5569 5573 5579 5584 5590 5594 5598 5603 5607 5611 5616 5620 5625 5631 5634 5638 5642 5646 5649 5651 5653 5656 5658 5659 5660 5660 5662 5662 5662 5661 5661 5661
5513 5512 5513 5514 5517 5520 5522 5524 5527 5529 5531 5535 5538 5542 5546 5550 5553 5555 5559 5561 5564 5568 5572 5575 5580 5585 5591 5595 5600 5606 5608 5612 5615 5620 5624 5628 5632 5636 5639 5643 5646 5648 5649 5651 5652 5653 5654 5654 5654 5654 5653 5652 5651 5650
5521 5522 5522 5523 5526 5528 5530 5533 5535 5537 5539 5543 5546 5548 5553 5555 5557 5560 5564 5566 5569 5571 5576 5579 5583 5588 5593 5597 5601 5604 5608 5612 5618 5622 5626 5629 5632 5636 5638 5641 5643 5645 5646 5647 5647 5647 5647 5647 5647 5646 5644 5643 5643 5643
5533 5532 5533 5534 5536 5538 5539 5541 5543 5545 5547 5550 5554 5557 5559 5561 5564 5565 5568 5571 5573 5576 5578 5583 5588 5591 5594 5597 5602 5606 5611 5615 5618 5621 5624 5627 5631 5633 5635 5637 5639 5640 5641 5641 5641 5641 5640 5639 5638 5636 5636 5635 5636 5636
5544 5545 5545 5545 5546 5546 5548 5549 5552 5553 5554 5556 5559 5562 5564 5566 5567 5570 5572 5575 5578 5580 5584 5587 5590 5594 5597 5600 5604 5608 5611 5615 5618 5621 5624 5626 5629 5631 5633 5634 5635 5635 5636 5635 5635 5634 5634 5633 5633 5633 5633 5632 5631 5631
5557 5557 5557 5557 5557 5557 5558 5559 5561 5561 5562 5564 5566 5567 5568 5570 5573 5575 5577 5580 5583 5586 5589 5591 5594 5596 5599 5602 5606 5608 5611 5615 5618 5620 5623 5625 5626 5628 5629 5630 5631 5631 5632 5632 5631 5630 5630 5630 5630 5629 5628 5627 5626 5625
5570 5568 5567 5566 5566 5566 5567 5567 5568 5570 5570 5571 5572 5573 5574 5576 5577 5579 5582 5585 5588 5591 5593 5595 5597 5599 5601 5604 5607 5610 5612 5616 5618 5620 5622 5623 5624 5625 5626 5627 5626 5627 5626 5626 5626 5626 5625 5624 5623 5622 5621 5620 5619 5618
5580 5578 5577 5576 5575 5574 5574 5574 5574 5575 5576 5577 5578 5580 5581 5583 5584 5585 5587 5590 5593 5594 5596 5598 5600 5603 5605 5607 5609 5611 5613 5615 5617 5619 5620 5621 5622 5622 5622 5623 5623 5623 5623 5623 5622 5621 5620 5618 5616 5615 5614 5612 5611 5610
5589 5586 5584 5584 5582 5580 5580 5580 5581 5581 5582 5583 5583 5585 5586 5588 5589 5591 5592 5594 5596 5598 5600 5602 5603 5605 5607 5608 5609 5610 5612 5613 5615 5616 5616 5617 5618 5619 5619 5619 5618 5618 5618 5617 5616 5615 5613 5612 5611 5610 5608 5606 5605 5604
5603 5600 5597 5594 5593 5591 5590 5587 5587 5587 5588 5589 5590 5591 5592 5593 5594 5595 5597 5599 5600 5602 5603 5605 5606 5607 5608 5609 5611 5611 5612 5613 5613 5613 5614 5615 5616 5617 5616 5616 5615 5614 5613 5612 5611 5610 5608 5607 5605 5603 5601 5599 5597 5595
5615 5613 5610 5607 5605 5604 5602 5600 5599 5598 5598 5597 5597 5598 5598 5599 5600 5601 5603 5604 5605 5606 5608 5609 5610 5611 5612 5613 5613 5614 5614 5614 5613 5612 5612 5612 5612 5611 5610 5610 5609 5608 5606 5605 5604 5603 5601 5600 5597 5595 5592 5590 5588 5586
5627 5623 5621 5619 5617 5615 5613 5611 5610 5609 5608 5608 5607 5607 5608 5608 5607 5608 5609 5610 5611 5611 5611 5612 5613 5613 5613 5614 5614 5614 5613 5612 5611 5611 5610 5609 5609 5608 5606 5604 5602 5600 5599 5598 5597 5596 5594 5591 5587 5585 5582 5580 5577 5575
5632 5630 5629 5626 5625 5623 5622 5620 5619 5618 5617 5617 5616 5617 5616 5616 5616 5615 5616 5616 5616 5617 5617 5617 5617 5617 5616 5616 5615 5613 5612 5612 5611 5609 5608 5606 5605 5602 5600 5597 5595 5594 5592 5590 5588 5586 5583 5580 5578 5576 5573 5569 5565 5561
5639 5636 5635 5633 5631 5629 5628 5627 5626 5625 5624 5624 5624 5623 5623 5623 5621 5621 5621 5621 5621 5620 5620 5620 5620 5619 5619 5618 5616 5614 5612 5610 5608 5606 5605 5602 5600 5597 5594 5592 5589 5587 5584 5580 5577 5574 5572 5569 5566 5563 5559 5555 5551 5547
5644 5643 5642 5640 5639 5637 5635 5634 5634 5633 5631 5631 5630 5630 5629 5628 5627 5626 5625 5625 5625 5624 5624 5623 5623 5621 5618 5616 5613 5611 5609 5606 5603 5600 5599 5597 5594 5591 5588 5585 5581 5577 5574 5570 5566 5562 5557 5554 5550 5546 5541 5538 5534 5530
5651 5648 5647 5645 5644 5643 5641 5641 5640 5639 5638 5636 5635 5634 5633 5633 5632 5630 5628 5627 5626 5624 5623 5621 5619 5617 5615 5613 5610 5607 5604 5600 5598 5595 5591 5586 5583 5580 5577 5572 5568 5564 5560 5555 5550 5545 5541 5537 5532 5527 5523 5518 5514 5509
5655 5653 5652 5650 5649 5648 5647 5646 5644 5642 5640 5640 5639 5638 5637 5635 5632 5631 5629 5627 5625 5623 5621 5619 5617 5615 5613 5610 5606 5602 5599 5596 5593 5589 5584 5580 5576 5571 5566 5561 5557 5552 5547 5542 5537 5531 5526 5520 5514 5508 5503 5498 5493 5488
5660 5659 5656 5654 5653 5652 5651 5649 5647 5646 5644 5642 5641 5639 5636 5634 5632 5629 5627 5627 5626 5624 5621 5618 5616 5613 5609 5605 5601 5597 5593 5589 5583 5578 5574 5569 5564 5558 5553 5548 5543 5537 5531 5524 5518 5512 5506 5501 5495 5488 5482 5476 5470 5463
5663 5661 5659 5658 5655 5653 5652 5650 5647 5645 5644 5643 5641 5638 5636 5633 5630 5630 5628 5623 5620 5619 5617 5615 5612 5607 5602 5596 5591 5586 5582 5577 5572 5567 5561 5555 5550 5544 5539 5532 5525 5519 5512 5506 5499 5492 5485 5479 5472 5465 5458 5451 5444 5437
5665 5663 5661 5658 5655 5653 5652 5650 5648 5646 5645 5639 5637 5637 5633 5634 5633 5630 5625 5621 5616 5613 5610 5606 5601 5596 5590 5585 5580 5575 5569 5563 5557 5550 5544 5538 5533 5526 5519 5513 5506 5499 5492 5485 5477 5470 5463 5455 5448 5440 5431 5424 5416 5409